Location: Doschendorf
(50.0069°N, 11.0602°E)
Time: 03:25:56
(UTC+00:00)

ERBS - Pass Details

Date: 17 November 2019
Orbit: 411 x 430 km, 57.0° (Epoch: 05 December)

Event Time Altitude Azimuth Distance (km) Brightness Sun altitude
Rises 17:00:21 0° 225° (SW) 2,338 7.1 -14.4°
Reaches altitude 10° 17:02:25 10° 222° (SW) 1,481 5.8 -14.7°
Maximum altitude 17:05:41 59° 142° (SE) 483 2.3 -15.2°
Enters shadow 17:06:46 36° 79° (E) 674 2.7 -15.4°
